#timestamp,LO_Frequency,Hit,StdDev 
1529798415.0,286047001.4,N
1529798415.9,286047001.4,N
1529798435.8,286047003.1,N
1529798455.6,286047001.3,N
1529798475.4,286047003.6,N
1529798495.3,286047003.4,N
1529798515.1,286047004.1,N
1529798535.9,286047001.7,N
1529798555.7,286047003.5,N
1529798575.5,286047003.0,N
1529798595.4,286047004.8,Y
1529798615.2,286047001.7,P
1529798635.0,286047003.0,P
1529798636.0,286047003.0,P
1529798655.8,286047002.3,Y
1529798675.6,286046998.2,P
1529798695.5,286047000.8,N
1529798715.3,286046998.4,N
1529798735.1,286047000.4,N
1529798755.9,286046998.3,N
1529798775.7,286046999.4,N
1529798795.6,286047000.8,N
1529798815.4,286047000.9,N
1529798835.2,286047001.0,N
1529798855.1,286046998.4,N
1529798856.0,286046998.4,N
1529798875.8,286047001.2,N
1529798895.7,286046998.3,N
1529798915.5,286046998.8,N
1529798935.3,286046998.3,N
1529798955.2,286046998.4,N
1529798975.0,286046998.2,N
1529798975.9,286046998.2,N
1529798995.7,286046998.2,N
1529799015.6,286046999.0,N
1529799035.4,286046999.0,N
1529799055.3,286046998.6,N
1529799075.1,286046997.0,N
1529799076.0,286046997.0,N
1529799095.8,286046997.8,N
1529799115.7,286046997.7,N
1529799135.5,286046994.9,Y
1529799155.4,286046998.6,P
1529799175.2,286046998.5,P
1529799195.1,286047001.1,P
1529799196.0,286047001.1,N
1529799215.8,286047000.0,N
1529799235.6,286047002.6,N
1529799255.5,286046999.7,N
1529799275.3,286047000.1,N
1529799295.2,286046998.2,N
1529799315.9,286046998.4,N
1529799335.7,286046998.3,N
1529799355.6,286046999.4,N
1529799375.4,286046998.4,N
1529799395.2,286046998.1,N
1529799415.1,286046998.8,N
1529799416.0,286046998.8,N
1529799435.8,286047000.6,N
1529799455.7,286046998.7,N
1529799475.5,286047000.3,N
1529799495.3,286047002.6,N
1529799515.2,286047002.3,N
1529799535.0,286047000.9,N
1529799535.9,286047000.9,N
1529799555.7,286047000.3,N
1529799575.6,286047002.8,N
1529799595.4,286047002.3,N
1529799615.3,286047002.5,N
1529799635.1,286047000.0,N
1529799655.8,286047000.4,N
1529799675.7,286047000.9,N
1529799695.5,286046998.6,N
1529799715.3,286046998.9,N
1529799735.2,286046999.1,N
1529799755.0,286047000.8,N
1529799755.9,286047000.8,N
1529799775.8,286046998.3,N
1529799795.6,286046999.3,N
1529799815.4,286046998.5,N
1529799835.3,286047000.9,N
1529799855.2,286047002.6,N
1529799875.0,286046999.7,N
1529799875.9,286046999.7,N
1529799895.8,286047000.5,N
1529799915.6,286046998.6,N
1529799935.4,286046999.9,N
1529799955.3,286047001.6,N
1529799975.1,286047002.6,N
1529799995.9,286046999.9,N
1529800015.7,286047000.0,N
1529800035.5,286047000.9,N
1529800055.4,286046999.0,N
1529800075.2,286046998.8,N
1529800095.0,286047000.6,N
1529800095.9,286047000.6,N
1529800115.8,286047000.8,N
1529800135.6,286046998.3,N
1529800155.5,286047000.7,N
1529800175.3,286047000.0,N
1529800195.1,286046999.8,N
1529800215.9,286047001.5,N
1529800235.7,286047000.3,N
1529800255.5,286047000.5,N
1529800275.4,286047000.5,N
1529800295.2,286047002.1,N
1529800315.1,286047002.1,N
1529800316.0,286047002.1,N
1529800335.8,286046999.7,N
1529800355.6,286047002.7,N
1529800375.5,286047002.9,N
1529800395.5,286047004.1,Y
1529800415.3,286047002.5,P
1529800435.2,286046999.7,N
1529800455.0,286047001.8,N
1529800455.9,286047001.8,N
1529800475.7,286047002.2,N
1529800495.6,286047001.4,N
1529800515.4,286047003.0,Y
1529800535.3,286047004.0,P
1529800555.1,286047002.8,N
1529800556.0,286047002.8,N
1529800575.8,286047000.5,N
1529800595.7,286047000.3,N
1529800615.5,286047000.6,N
1529800635.3,286047000.6,N
1529800655.7,286047001.2,N
1529800675.5,286046998.5,N
1529800695.3,286047001.1,N
1529800715.2,286046999.9,N
1529800735.0,286046998.9,N
1529800735.9,286046998.9,N
1529800755.8,286046998.7,N
1529800775.6,286046998.8,N
1529800795.4,286046998.6,N
1529800815.3,286046999.3,N
1529800835.1,286047001.2,N
1529800855.8,286047000.5,N
1529800875.7,286047002.2,N
1529800895.5,286047001.7,N
1529800915.4,286047001.6,N
1529800935.2,286047000.4,N
1529800955.0,286047000.9,N
1529800955.9,286047000.9,N
1529800975.8,286047001.0,N
1529800995.6,286046999.1,N
1529801015.4,286046996.5,N
1529801035.3,286046998.1,N
1529801055.1,286047001.9,N
1529801075.9,286047000.5,N
1529801095.7,286047000.8,N
1529801115.5,286047002.3,N
1529801135.4,286047002.6,N
1529801155.2,286047002.8,N
1529801175.0,286046998.8,N
1529801175.9,286046998.8,N
1529801195.8,286046998.5,N
1529801215.6,286047000.8,N
1529801235.5,286046999.4,N
1529801255.3,286046998.2,N
1529801275.1,286047000.2,N
1529801295.9,286046999.8,N
1529801315.7,286047004.0,N
1529801335.5,286047005.7,Y
1529801355.4,286047003.7,P
1529801375.2,286047003.3,N
1529801395.1,286047005.8,P
1529801396.0,286047005.8,N
1529801415.8,286047002.1,N
1529801435.6,286047003.8,N
1529801455.5,286047002.8,N
1529801475.3,286047001.7,N
1529801495.2,286047002.2,N
1529801515.9,286047002.4,N
1529801535.7,286046999.7,N
1529801555.6,286047002.0,N
1529801575.4,286047001.1,N
1529801595.3,286047000.6,N
1529801615.1,286046998.5,N
1529801616.0,286046998.5,N
1529801635.8,286047000.7,N
1529801655.7,286047001.2,N
1529801675.5,286046999.1,N
1529801695.3,286046998.1,N
1529801715.2,286047000.6,N
1529801735.0,286047000.9,N
1529801735.9,286047000.9,N
1529801755.8,286046999.3,N
1529801775.6,286046998.3,N
1529801795.4,286046996.9,N
1529801815.3,286046998.4,N
1529801835.1,286046998.5,N
1529801855.9,286046999.0,N
1529801875.7,286046999.3,N
1529801895.5,286046996.7,N
1529801915.4,286046996.8,N
1529801935.2,286046996.6,N
1529801955.0,286046998.0,N
1529801956.0,286046998.0,N
1529801975.8,286046998.0,N
1529801995.6,286046997.1,N
